[{"OBJECT_NAME":"NSS-11","OBJECT_ID":"2000-059A","EPOCH":"2026-09-12T06:02:38.660640","MEAN_MOTION":1.00272341,"ECCENTRICITY":0.00028666,"INCLINATION":2.3455,"RA_OF_ASC_NODE":80.2581,"ARG_OF_PERICENTER":94.2757,"MEAN_ANOMALY":83.3883,"EPHEMERIS_TYPE":0,"CLASSIFICATION_TYPE":"U","NORAD_CAT_ID":26554,"ELEMENT_SET_NO":999,"REV_AT_EPOCH":4216,"BSTAR":0,"MEAN_MOTION_DOT":1.1e-7,"MEAN_MOTION_DDOT":0},{"OBJECT_NAME":"AMC-6","OBJECT_ID":"2000-067A","EPOCH":"2026-09-12T06:27:38.778912","MEAN_MOTION":1.00272241,"ECCENTRICITY":0.00042037,"INCLINATION":0.37,"RA_OF_ASC_NODE":83.6988,"ARG_OF_PERICENTER":97.4928,"MEAN_ANOMALY":131.9536,"EPHEMERIS_TYPE":0,"CLASSIFICATION_TYPE":"U","NORAD_CAT_ID":26580,"ELEMENT_SET_NO":999,"REV_AT_EPOCH":9476,"BSTAR":0,"MEAN_MOTION_DOT":7.4e-7,"MEAN_MOTION_DDOT":0},{"OBJECT_NAME":"AMC-15","OBJECT_ID":"2004-041A","EPOCH":"2026-09-12T06:19:38.851968","MEAN_MOTION":1.002716,"ECCENTRICITY":0.00020664,"INCLINATION":0.0463,"RA_OF_ASC_NODE":314.8365,"ARG_OF_PERICENTER":224.1754,"MEAN_ANOMALY":162.1068,"EPHEMERIS_TYPE":0,"CLASSIFICATION_TYPE":"U","NORAD_CAT_ID":28446,"ELEMENT_SET_NO":999,"REV_AT_EPOCH":8017,"BSTAR":0,"MEAN_MOTION_DOT":-0.00000103,"MEAN_MOTION_DDOT":0},{"OBJECT_NAME":"NSS-10","OBJECT_ID":"2005-003A","EPOCH":"2026-09-12T06:52:59.664288","MEAN_MOTION":1.00271984,"ECCENTRICITY":0.00029148,"INCLINATION":6.6637,"RA_OF_ASC_NODE":69.3614,"ARG_OF_PERICENTER":102.5225,"MEAN_ANOMALY":245.2216,"EPHEMERIS_TYPE":0,"CLASSIFICATION_TYPE":"U","NORAD_CAT_ID":28526,"ELEMENT_SET_NO":999,"REV_AT_EPOCH":5402,"BSTAR":0,"MEAN_MOTION_DOT":-0.00000263,"MEAN_MOTION_DDOT":0},{"OBJECT_NAME":"ASTRA 1KR","OBJECT_ID":"2006-012A","EPOCH":"2026-09-12T05:26:30.457824","MEAN_MOTION":1.00272799,"ECCENTRICITY":0.00034402,"INCLINATION":0.6933,"RA_OF_ASC_NODE":82.7032,"ARG_OF_PERICENTER":90.5445,"MEAN_ANOMALY":278.6068,"EPHEMERIS_TYPE":0,"CLASSIFICATION_TYPE":"U","NORAD_CAT_ID":29055,"ELEMENT_SET_NO":999,"REV_AT_EPOCH":4657,"BSTAR":0,"MEAN_MOTION_DOT":0.00000105,"MEAN_MOTION_DDOT":0},{"OBJECT_NAME":"ASTRA 1L","OBJECT_ID":"2007-016A","EPOCH":"2026-09-12T06:56:44.306016","MEAN_MOTION":1.00271855,"ECCENTRICITY":0.00048518,"INCLINATION":1.5406,"RA_OF_ASC_NODE":80.7025,"ARG_OF_PERICENTER":90.3576,"MEAN_ANOMALY":259.9393,"EPHEMERIS_TYPE":0,"CLASSIFICATION_TYPE":"U","NORAD_CAT_ID":31306,"ELEMENT_SET_NO":999,"REV_AT_EPOCH":4585,"BSTAR":0,"MEAN_MOTION_DOT":-0.00000198,"MEAN_MOTION_DDOT":0},{"OBJECT_NAME":"ASTRA 4A","OBJECT_ID":"2007-057A","EPOCH":"2026-09-12T07:05:06.004032","MEAN_MOTION":1.00272623,"ECCENTRICITY":0.00023476,"INCLINATION":0.044,"RA_OF_ASC_NODE":313.4455,"ARG_OF_PERICENTER":221.8997,"MEAN_ANOMALY":287.0391,"EPHEMERIS_TYPE":0,"CLASSIFICATION_TYPE":"U","NORAD_CAT_ID":32299,"ELEMENT_SET_NO":999,"REV_AT_EPOCH":5252,"BSTAR":0,"MEAN_MOTION_DOT":1.8e-7,"MEAN_MOTION_DDOT":0},{"OBJECT_NAME":"ASTRA 1M","OBJECT_ID":"2008-057A","EPOCH":"2026-09-12T05:26:37.946112","MEAN_MOTION":1.00271138,"ECCENTRICITY":0.00036586,"INCLINATION":0.5153,"RA_OF_ASC_NODE":82.6581,"ARG_OF_PERICENTER":88.009,"MEAN_ANOMALY":281.6096,"EPHEMERIS_TYPE":0,"CLASSIFICATION_TYPE":"U","NORAD_CAT_ID":33436,"ELEMENT_SET_NO":999,"REV_AT_EPOCH":4661,"BSTAR":0,"MEAN_MOTION_DOT":0.00000106,"MEAN_MOTION_DDOT":0},{"OBJECT_NAME":"NSS-9","OBJECT_ID":"2009-008A","EPOCH":"2026-09-12T02:48:00.656064","MEAN_MOTION":1.00273645,"ECCENTRICITY":0.00021915,"INCLINATION":1.4803,"RA_OF_ASC_NODE":81.6412,"ARG_OF_PERICENTER":84.9224,"MEAN_ANOMALY":49.6512,"EPHEMERIS_TYPE":0,"CLASSIFICATION_TYPE":"U","NORAD_CAT_ID":33749,"ELEMENT_SET_NO":999,"REV_AT_EPOCH":6439,"BSTAR":0,"MEAN_MOTION_DOT":5.8e-7,"MEAN_MOTION_DDOT":0},{"OBJECT_NAME":"SES-7 (PROTOSTAR 2)","OBJECT_ID":"2009-027A","EPOCH":"2026-09-12T00:09:00.653184","MEAN_MOTION":1.00271038,"ECCENTRICITY":0.00014828,"INCLINATION":0.0376,"RA_OF_ASC_NODE":78.6265,"ARG_OF_PERICENTER":147.2559,"MEAN_ANOMALY":235.6482,"EPHEMERIS_TYPE":0,"CLASSIFICATION_TYPE":"U","NORAD_CAT_ID":34941,"ELEMENT_SET_NO":999,"REV_AT_EPOCH":6350,"BSTAR":0,"MEAN_MOTION_DOT":-0.0000036,"MEAN_MOTION_DDOT":0},{"OBJECT_NAME":"NSS-12","OBJECT_ID":"2009-058A","EPOCH":"2026-09-12T03:54:39.266208","MEAN_MOTION":1.00270911,"ECCENTRICITY":0.00032959,"INCLINATION":0.0202,"RA_OF_ASC_NODE":139.877,"ARG_OF_PERICENTER":352.4315,"MEAN_ANOMALY":334.5244,"EPHEMERIS_TYPE":0,"CLASSIFICATION_TYPE":"U","NORAD_CAT_ID":36032,"ELEMENT_SET_NO":999,"REV_AT_EPOCH":6179,"BSTAR":0,"MEAN_MOTION_DOT":0,"MEAN_MOTION_DDOT":0},{"OBJECT_NAME":"SES-1","OBJECT_ID":"2010-016A","EPOCH":"2026-09-12T04:52:18.736032","MEAN_MOTION":1.00272125,"ECCENTRICITY":0.00024952,"INCLINATION":0.045,"RA_OF_ASC_NODE":303.3656,"ARG_OF_PERICENTER":238.1957,"MEAN_ANOMALY":141.746,"EPHEMERIS_TYPE":0,"CLASSIFICATION_TYPE":"U","NORAD_CAT_ID":36516,"ELEMENT_SET_NO":999,"REV_AT_EPOCH":5990,"BSTAR":0,"MEAN_MOTION_DOT":-0.0000013,"MEAN_MOTION_DDOT":0},{"OBJECT_NAME":"ASTRA 3B","OBJECT_ID":"2010-021A","EPOCH":"2026-09-12T05:27:45.338112","MEAN_MOTION":1.00271315,"ECCENTRICITY":0.00037458,"INCLINATION":1.6871,"RA_OF_ASC_NODE":82.3555,"ARG_OF_PERICENTER":64.3517,"MEAN_ANOMALY":309.9679,"EPHEMERIS_TYPE":0,"CLASSIFICATION_TYPE":"U","NORAD_CAT_ID":36581,"ELEMENT_SET_NO":999,"REV_AT_EPOCH":5974,"BSTAR":0,"MEAN_MOTION_DOT":0.00000123,"MEAN_MOTION_DDOT":0},{"OBJECT_NAME":"SES-3","OBJECT_ID":"2011-035A","EPOCH":"2026-09-12T04:51:41.296320","MEAN_MOTION":1.00274444,"ECCENTRICITY":0.00024431,"INCLINATION":1.5455,"RA_OF_ASC_NODE":81.9832,"ARG_OF_PERICENTER":105.2775,"MEAN_ANOMALY":133.8819,"EPHEMERIS_TYPE":0,"CLASSIFICATION_TYPE":"U","NORAD_CAT_ID":37748,"ELEMENT_SET_NO":999,"REV_AT_EPOCH":5546,"BSTAR":0,"MEAN_MOTION_DOT":-0.00000116,"MEAN_MOTION_DDOT":0},{"OBJECT_NAME":"ASTRA 1N","OBJECT_ID":"2011-041A","EPOCH":"2026-09-12T05:26:30.457824","MEAN_MOTION":1.00273043,"ECCENTRICITY":0.00048991,"INCLINATION":0.0712,"RA_OF_ASC_NODE":12.9078,"ARG_OF_PERICENTER":136.3978,"MEAN_ANOMALY":302.7419,"EPHEMERIS_TYPE":0,"CLASSIFICATION_TYPE":"U","NORAD_CAT_ID":37775,"ELEMENT_SET_NO":999,"REV_AT_EPOCH":4540,"BSTAR":0,"MEAN_MOTION_DOT":0.00000105,"MEAN_MOTION_DDOT":0},{"OBJECT_NAME":"SES-2","OBJECT_ID":"2011-049A","EPOCH":"2026-09-12T06:38:53.516256","MEAN_MOTION":1.0027246,"ECCENTRICITY":0.00028146,"INCLINATION":0.2762,"RA_OF_ASC_NODE":87.6783,"ARG_OF_PERICENTER":82.6862,"MEAN_ANOMALY":193.641,"EPHEMERIS_TYPE":0,"CLASSIFICATION_TYPE":"U","NORAD_CAT_ID":37809,"ELEMENT_SET_NO":999,"REV_AT_EPOCH":5483,"BSTAR":0,"MEAN_MOTION_DOT":-0.0000021,"MEAN_MOTION_DDOT":0},{"OBJECT_NAME":"QUETZSAT 1","OBJECT_ID":"2011-054A","EPOCH":"2026-09-12T06:41:45.740832","MEAN_MOTION":1.00271969,"ECCENTRICITY":0.00025493,"INCLINATION":0.0445,"RA_OF_ASC_NODE":297.0367,"ARG_OF_PERICENTER":247.0091,"MEAN_ANOMALY":190.6857,"EPHEMERIS_TYPE":0,"CLASSIFICATION_TYPE":"U","NORAD_CAT_ID":37826,"ELEMENT_SET_NO":999,"REV_AT_EPOCH":5074,"BSTAR":0,"MEAN_MOTION_DOT":-0.00000256,"MEAN_MOTION_DDOT":0},{"OBJECT_NAME":"SES-4","OBJECT_ID":"2012-007A","EPOCH":"2026-09-12T06:57:29.234016","MEAN_MOTION":1.0027265,"ECCENTRICITY":0.00025547,"INCLINATION":0.0189,"RA_OF_ASC_NODE":53.5788,"ARG_OF_PERICENTER":122.3641,"MEAN_ANOMALY":257.7421,"EPHEMERIS_TYPE":0,"CLASSIFICATION_TYPE":"U","NORAD_CAT_ID":38087,"ELEMENT_SET_NO":999,"REV_AT_EPOCH":5309,"BSTAR":0,"MEAN_MOTION_DOT":-0.00000182,"MEAN_MOTION_DDOT":0},{"OBJECT_NAME":"SES-5","OBJECT_ID":"2012-036A","EPOCH":"2026-09-12T07:05:06.004032","MEAN_MOTION":1.00270079,"ECCENTRICITY":0.00019729,"INCLINATION":0.015,"RA_OF_ASC_NODE":43.107,"ARG_OF_PERICENTER":124.0606,"MEAN_ANOMALY":295.384,"EPHEMERIS_TYPE":0,"CLASSIFICATION_TYPE":"U","NORAD_CAT_ID":38652,"ELEMENT_SET_NO":999,"REV_AT_EPOCH":4533,"BSTAR":0,"MEAN_MOTION_DOT":0,"MEAN_MOTION_DDOT":0},{"OBJECT_NAME":"ASTRA 2F","OBJECT_ID":"2012-051A","EPOCH":"2026-09-12T05:29:07.706688","MEAN_MOTION":1.00272495,"ECCENTRICITY":0.00041956,"INCLINATION":0.0691,"RA_OF_ASC_NODE":257.8826,"ARG_OF_PERICENTER":306.6952,"MEAN_ANOMALY":257.1166,"EPHEMERIS_TYPE":0,"CLASSIFICATION_TYPE":"U","NORAD_CAT_ID":38778,"ELEMENT_SET_NO":999,"REV_AT_EPOCH":4200,"BSTAR":0,"MEAN_MOTION_DOT":0.00000135,"MEAN_MOTION_DDOT":0},{"OBJECT_NAME":"SES-6","OBJECT_ID":"2013-026A","EPOCH":"2026-09-12T06:52:07.248000","MEAN_MOTION":1.00271792,"ECCENTRICITY":0.00023902,"INCLINATION":0.0564,"RA_OF_ASC_NODE":294.7532,"ARG_OF_PERICENTER":241.5795,"MEAN_ANOMALY":237.5089,"EPHEMERIS_TYPE":0,"CLASSIFICATION_TYPE":"U","NORAD_CAT_ID":39172,"ELEMENT_SET_NO":999,"REV_AT_EPOCH":4859,"BSTAR":0,"MEAN_MOTION_DOT":-0.00000276,"MEAN_MOTION_DDOT":0},{"OBJECT_NAME":"O3B FM5","OBJECT_ID":"2013-031A","EPOCH":"2026-09-12T04:36:49.412448","MEAN_MOTION":5.00115703,"ECCENTRICITY":0.00024956,"INCLINATION":0.0828,"RA_OF_ASC_NODE":318.5242,"ARG_OF_PERICENTER":198.246,"MEAN_ANOMALY":203.241,"EPHEMERIS_TYPE":0,"CLASSIFICATION_TYPE":"U","NORAD_CAT_ID":39188,"ELEMENT_SET_NO":999,"REV_AT_EPOCH":24138,"BSTAR":0,"MEAN_MOTION_DOT":-2.8e-7,"MEAN_MOTION_DDOT":0},{"OBJECT_NAME":"O3B FM4","OBJECT_ID":"2013-031B","EPOCH":"2026-09-10T17:06:04.307040","MEAN_MOTION":5.00115971,"ECCENTRICITY":0.00044943,"INCLINATION":0.0404,"RA_OF_ASC_NODE":352.761,"ARG_OF_PERICENTER":149.7641,"MEAN_ANOMALY":217.5054,"EPHEMERIS_TYPE":0,"CLASSIFICATION_TYPE":"U","NORAD_CAT_ID":39189,"ELEMENT_SET_NO":999,"REV_AT_EPOCH":24131,"BSTAR":0,"MEAN_MOTION_DOT":-2.8e-7,"MEAN_MOTION_DDOT":0},{"OBJECT_NAME":"O3B FM2","OBJECT_ID":"2013-031C","EPOCH":"2026-09-11T23:27:20.173248","MEAN_MOTION":5.0011611,"ECCENTRICITY":0.00026124,"INCLINATION":0.0348,"RA_OF_ASC_NODE":358.6108,"ARG_OF_PERICENTER":167.5788,"MEAN_ANOMALY":193.8173,"EPHEMERIS_TYPE":0,"CLASSIFICATION_TYPE":"U","NORAD_CAT_ID":39190,"ELEMENT_SET_NO":999,"REV_AT_EPOCH":24144,"BSTAR":0,"MEAN_MOTION_DOT":-2.8e-7,"MEAN_MOTION_DDOT":0}]